Starlink 34136

operational
NORAD ID: 64112 Int'l Des: 2025-110 Owner: SPXS Country: US Constellation: starlink
LEOCIRCULAR

Über Starlink 34136

Beschreibung wird geladen...

Live-Position

3D-Globus wird geladen...

Nächste Überflüge

Höhenverlauf

Altitude vs Time

uPlot chart will show altitude changes over time

Zweizeiliger Elementsatz

1 64112U 25110S 25260.85950649 .00032015 00000-0 80622-3 0 9996
2 64112 53.1577 112.9343 0000804 84.4656 275.6440 15.39649570 19379
Epoch: 17. Sept. 2025 • Age: 29 hours

Aktueller Status

Höhe 456.0 km
Geschwindigkeit 7.64 km/s
Subsatellitenpunkt -29.01°S, 53.5°E
Startdatum 23. Mai 2025
Alter 0.3 years
Typ internet

Technische Details

Klassifizierung Payload
Masse 575.00 kg
Trockenmasse 530.00 kg
Gesamtmasse 575.00 kg
Länge 0.30 m
Durchmesser 4.10 m
Spannweite 29.00 m
Form Box + pan
Hersteller SPXS
Bus-Typ Starlink V2MO
Phasenstatus In Orbit
Besitzer/Staat SPXS/US

Große Konstellationen

Loading constellations...